Weather in Vishnevoye

Ukraine / Odesa District     45°48′23″N   29°46′25″E
temp.,
°C
wind,
m/s
gust,
m/s
humid.,
%
clouds,
%
prec.,
mm/h
press.,
hPa
HPBL,
m
22 april, thu
thu2200:00+9sw45825 0.0 101886
03:00+9ssw22835 0.0 101824
06:00+8s22865 0.0 101914
09:00+13s34685 0.0 1020254
12:00+16s45540 0.0 10201105
15:00+16s5659100 0.6 1019783
18:00+14s696398 0.4 1018370
21:00+12s61271100 0.4 1019243
23 april, fri
fri2300:00+11s61278100 0.0 1018246
03:00+10ssw5987100 0.0 1018176
06:00+10ssw4888100 0.2 1017152
09:00+13ssw4572100 0.2 1018242
12:00+16sw4663100 1.3 1017858
15:00+13nw5773100 2.9 1017400
18:00+12wsw238344 0.9 1017384
21:00+8n699093 3.8 1020385
24 april, sat
sat2400:00+6nnw48912 0.0 1021291
03:00+5nw35880 0.0 1021113
06:00+5nw34850 0.0 102181
09:00+10nw44624 0.0 1022407
12:00+13nw4548100 0.0 10221614
15:00+11nnw665651 0.1 10231022
18:00+12nnw454585 0.0 10231436
21:00+9nne4653100 0.0 1024113
25 april, sun
sun2500:00+7e116099 0.0 102414
03:00+7nne00635 0.0 102431
06:00+6se116855 0.0 102329
09:00+11sse345419 0.0 1023588
12:00+12sse554420 0.0 1022953
15:00+12sse664768 0.0 1021627
18:00+11sse7957100 0.0 1020412
21:00+9s596598 0.0 1020212
26 april, mon
mon2600:00+8ssw588098 1.2 1020290
03:00+7nnw3486100 2.5 1021207
06:00+6nne478770 0.5 1021309
09:00+9n45540 0.5 1022746
12:00+11n23385 0.0 10221332
15:00+13s244098 0.0 10201598
18:00+11s655392 0.0 1020438
21:00+9s596196 0.0 1020252